[[{"header":{"parameterUnit":"m.s-1","parameterCategory":1,"la1":30.2991,"la2":30.254,"lo1":-89.0895,"lo2":-89.0444,"dy":0.0017,"dx":0.0017,"nx":28,"ny":28,"refTime":"2024-08-15T21:00:00:Z","depth":0,"parameterNumber":2,"parameterNumberName":"U-component_of_WINDS"},"data":[0,0,0,0,0,0,0,0,0,0,0,0,0,0,0,0,0,0,0,0,0,0,0,0,0,0,0,0,0,0,0,0,0,0,0,0,0,0,0,0,0,0,0,0,0,0,0,0,0,0,0,0,0,0,0,0,0,0,0.9068,0.9067,0,0.9031,0.9031,0.903,0.899,0.8989,0.8989,0.8988,0.895,0.895,0.8949,0,0,0,0,0,0,0,0,0,0,0,0,0,0.9099,0.9099,0.9068,0.9067,0.9067,0.9031,0.9031,0.903,0.899,0.8989,0.8988,0.8988,0.895,0.895,0.8949,0,0,0,0,0,0,0,0,0,0,0,0,0,0.9076,0.9099,0.9068,0.9042,0.904,0.9031,0.9031,0.903,0.899,0.8989,0.8988,0.8987,0.895,0.895,0.8949,0.8963,0,0,0.8947,0.8947,0,0,0,0,0,0,0,0,0.9078,0.9075,0.9047,0.9044,0.9041,0.9014,0.9028,0.9008,0.899,0.9009,0.8988,0.8987,0.8972,0.897,0.8965,0.8961,0.8959,0.8947,0.8946,0.8946,0.8946,0,0,0,0,0,0,0,0.9079,0.9077,0.9053,0.9046,0.9043,0.9032,0.9028,0.9024,0.8996,0.9007,0.9004,0.9,0.897,0.8965,0.8963,0.8959,0.8947,0.8946,0.8946,0.8946,0.896,0.8961,0,0,0,0,0,0,0.9085,0.9078,0.9054,0.9052,0.9058,0.9032,0.9027,0.9024,0.8996,0.8991,0.9001,0.8999,0.8967,0.8964,0.8962,0.8973,0.8946,0.8946,0.8945,0.896,0.8961,0.8961,0,0,0,0,0,0,0.9086,0.9083,0.9056,0.9064,0.906,0.9032,0.9029,0.9023,0.9018,0.8991,0.8986,0.9001,0.8966,0.8963,0.8962,0.8972,0.8945,0.8945,0.8959,0.896,0.8961,0.8998,0,0,0,0,0,0,0.9087,0.9084,0.909,0.9065,0.906,0.9058,0.9029,0.9023,0.9017,0.9014,0.899,0.8985,0.8965,0.8963,0.8961,0.897,0.8944,0.8958,0.8959,0.8961,0.8996,0.9001,0.9004,0,0,0,0,0,0.9088,0.9102,0.909,0.9088,0.9066,0.9058,0.9055,0.9032,0.9019,0.9023,0.9005,0.8986,0.8971,0.8964,0.8961,0.897,0.8957,0.8959,0.896,0.8994,0.9,0.9004,0,0,0,0,0,0,0.9129,0.9099,0.9085,0.9091,0.9078,0.9051,0.9057,0.9039,0.9029,0.9026,0.8997,0.8992,0.8994,0.8982,0.8974,0.898,0.8961,0.8962,0.8987,0.8992,0.8997,0.8999,0.8944,0,0,0,0,0,0.9139,0.9136,0.9109,0.9117,0.9111,0.9085,0.9081,0.9064,0.9048,0.9042,0.9024,0.901,0.9001,0.8996,0.8988,0.8994,0.8987,0.8999,0.9003,0.9007,0.9008,0.9007,0.9011,0.8967,0.8967,0.8967,0,0,0.9159,0.9142,0.9142,0.9125,0.9112,0.9108,0.908,0.9078,0.9074,0.9042,0.9039,0.9025,0.9007,0.9009,0.9009,0.8999,0.9018,0.9009,0.9012,0.9011,0.901,0.9014,0.9017,0.8969,0.8968,0.8968,0,0,0.9193,0.9181,0.9185,0.9173,0.9153,0.9136,0.9137,0.9113,0.9102,0.9099,0.9074,0.9068,0.9056,0.9042,0.9034,0.906,0.9041,0.9058,0.908,0.908,0.9083,0.9086,0.9093,0.9096,0.906,0.906,0.906,0,0.9221,0.9214,0.9189,0.9187,0.9179,0.915,0.9152,0.9141,0.912,0.9115,0.9104,0.9085,0.9071,0.9068,0.9074,0.9069,0.9067,0.906,0.9085,0.9087,0.909,0.9096,0.9099,0.9062,0.9061,0.9061,0.9061,0,0.9247,0.9243,0.9248,0.9227,0.922,0.9221,0.9195,0.919,0.9174,0.9157,0.9152,0.9134,0.9119,0.9117,0.9102,0.9111,0.9105,0.909,0.9071,0.9096,0.9101,0.9104,0.9065,0.9064,0.9063,0.9063,0,0,0.9306,0.9271,0.9273,0.9262,0.9238,0.9233,0.9232,0.9217,0.9212,0.9199,0.9195,0.9183,0.9168,0.9158,0.9141,0.9141,0.9159,0.9125,0.9124,0.913,0.9166,0.9176,0.9179,0.9147,0.9147,0.9148,0.9166,0,0.9334,0.933,0.9306,0.9308,0.9301,0.9272,0.927,0.9254,0.9238,0.9229,0.9211,0.9202,0.9185,0.9178,0.9177,0.9157,0.9166,0.9156,0.9141,0.9141,0.9145,0.9183,0.9194,0.9213,0.9169,0.9169,0.9169,0,0.9367,0.9354,0.9355,0.9328,0.9324,0.9323,0.9306,0.9299,0.928,0.9268,0.9256,0.9235,0.923,0.9212,0.9203,0.9196,0.9189,0.9178,0.9178,0.9175,0.9156,0.9178,0.9219,0.9221,0.9173,0.9172,0.9172,0,0.9407,0.939,0.9387,0.9379,0.9349,0.9348,0.9335,0.9315,0.9306,0.9292,0.9285,0.927,0.9262,0.925,0.9225,0.9215,0.9217,0.9199,0.9205,0.9206,0.9206,0.9206,0.9244,0.9205,0.9205,0.9205,0.9205,0,0.944,0.944,0.9404,0.9403,0.9402,0.9374,0.9374,0.9358,0.934,0.9333,0.9308,0.9302,0.927,0.926,0.9241,0.9235,0.9232,0.922,0.9215,0.9222,0.9223,0.9215,0.9213,0.9205,0.9205,0.9205,0.9205,0,0.9484,0.946,0.9455,0.9426,0.9418,0.9419,0.9393,0.939,0.9371,0.9363,0.936,0.9331,0.9317,0.9291,0.9272,0.9258,0.9255,0.9247,0.9262,0.9258,0.9266,0.9265,0.9299,0.9301,0.9262,0.9262,0.9263,0,0.9505,0.9505,0.9476,0.947,0.9458,0.9448,0.9439,0.9412,0.9403,0.9379,0.9378,0.9363,0.9349,0.9329,0.9305,0.9288,0.9278,0.9291,0.9276,0.9282,0.9276,0.9275,0.9274,0.9295,0.9295,0.9296,0.9296,0,0.9545,0.9533,0.9521,0.9505,0.9495,0.9481,0.9465,0.9461,0.943,0.9421,0.9407,0.9396,0.9375,0.9359,0.9339,0.9324,0.9304,0.9301,0.9301,0.9308,0.9316,0.9309,0.9269,0.93,0.93,0.93,0.9299,0.9299,0.9577,0.9575,0.9553,0.954,0.9525,0.9511,0.9505,0.9485,0.9473,0.9454,0.9438,0.9424,0.9402,0.9373,0.9359,0.9347,0.9338,0.9339,0.9339,0.934,0.9341,0.9319,0.9344,0.9344,0.9344,0.9343,0.9343,0,0.9614,0.9598,0.9587,0.9565,0.9554,0.9537,0.9518,0.951,0.9498,0.948,0.9466,0.9449,0.9433,0.9407,0.9389,0.9384,0.9374,0.938,0.9379,0.9375,0.9352,0.9352,0.9388,0.9388,0.9388,0.9388,0.9388,0.9388,0.9631,0.9625,0.961,0.9595,0.9579,0.9566,0.9556,0.9542,0.9527,0.9508,0.9495,0.9478,0.9456,0.9435,0.9419,0.9412,0.9406,0.9414,0.9404,0.9382,0.9378,0.9374,0.9374,0.9413,0.9413,0.9428,0.9428,0.9428]},{"header":{"parameterUnit":"m.s-1","parameterCategory":1,"la1":30.2991,"la2":30.254,"lo1":-89.0895,"lo2":-89.0444,"dy":0.0017,"dx":0.0017,"nx":28,"ny":28,"refTime":"2024-08-15T21:00:00:Z","depth":0,"parameterNumber":3,"parameterNumberName":"V-component_of_WINDS"},"data":[0,0,0,0,0,0,0,0,0,0,0,0,0,0,0,0,0,0,0,0,0,0,0,0,0,0,0,0,0,0,0,0,0,0,0,0,0,0,0,0,0,0,0,0,0,0,0,0,0,0,0,0,0,0,0,0,0,0,1.7034,1.7035,0,1.7101,1.7102,1.7102,1.7082,1.708,1.7079,1.7078,1.7142,1.7145,1.7148,0,0,0,0,0,0,0,0,0,0,0,0,0,1.6883,1.6886,1.7034,1.7035,1.7036,1.7101,1.7102,1.7103,1.7082,1.708,1.7078,1.7077,1.7141,1.7145,1.7148,0,0,0,0,0,0,0,0,0,0,0,0,0,1.6949,1.6887,1.7034,1.7033,1.7034,1.7101,1.7102,1.7103,1.7082,1.708,1.7078,1.7076,1.714,1.7144,1.7149,1.7219,0,0,1.7163,1.7165,0,0,0,0,0,0,0,0,1.6946,1.6955,1.7033,1.7034,1.7034,1.7081,1.7072,1.7142,1.7083,1.7064,1.7077,1.7075,1.7123,1.7129,1.7146,1.7222,1.7225,1.7163,1.7166,1.7168,1.7169,0,0,0,0,0,0,0,1.6941,1.6952,1.706,1.7034,1.7035,1.7028,1.7035,1.7085,1.7104,1.7065,1.7064,1.7072,1.7123,1.7142,1.7147,1.7226,1.7163,1.7167,1.717,1.7172,1.7358,1.7361,0,0,0,0,0,0,1.6937,1.6948,1.7058,1.7062,1.6984,1.7032,1.704,1.7068,1.7104,1.7107,1.7074,1.7071,1.7135,1.7142,1.715,1.7232,1.7168,1.7172,1.7175,1.7356,1.7359,1.7361,0,0,0,0,0,0,1.6933,1.6947,1.7056,1.7005,1.7018,1.7037,1.7069,1.707,1.7089,1.7111,1.7113,1.709,1.7134,1.7143,1.7201,1.7234,1.7174,1.7178,1.7354,1.7357,1.736,1.7398,0,0,0,0,0,0,1.6929,1.6946,1.6974,1.7006,1.7021,1.7108,1.7071,1.7073,1.7097,1.7094,1.7126,1.7129,1.7133,1.7195,1.7206,1.7239,1.7182,1.7351,1.7355,1.7359,1.7393,1.7402,1.7409,0,0,0,0,0,1.6924,1.6982,1.6976,1.6989,1.7057,1.711,1.7119,1.7123,1.71,1.7127,1.7141,1.7128,1.7228,1.7201,1.7213,1.7248,1.7349,1.7354,1.7359,1.739,1.74,1.7409,0,0,0,0,0,0,1.6953,1.6986,1.698,1.705,1.7077,1.7107,1.7142,1.7134,1.7167,1.7163,1.7165,1.7172,1.7231,1.7245,1.7214,1.7316,1.7285,1.7293,1.7304,1.7314,1.7322,1.7317,1.7186,0,0,0,0,0,1.6968,1.701,1.7036,1.7095,1.7109,1.7123,1.7146,1.7147,1.7175,1.7186,1.7204,1.723,1.7267,1.7291,1.7327,1.7395,1.74,1.7425,1.7433,1.7439,1.7445,1.7479,1.749,1.7378,1.7378,1.7378,0,0,1.6999,1.7022,1.7048,1.7102,1.7123,1.7164,1.7133,1.7178,1.7208,1.7192,1.7248,1.7262,1.7291,1.7354,1.7382,1.7367,1.7477,1.7445,1.745,1.7453,1.7485,1.7496,1.7505,1.7381,1.7381,1.738,0,0,1.7075,1.7098,1.7149,1.7171,1.7203,1.7211,1.7223,1.7253,1.7262,1.7318,1.7306,1.734,1.7405,1.7425,1.7444,1.7525,1.7514,1.7536,1.7576,1.7609,1.7618,1.7626,1.7653,1.7662,1.7543,1.7543,1.7543,0,1.7109,1.7172,1.7176,1.7221,1.7244,1.7232,1.7281,1.7302,1.7344,1.7359,1.7342,1.742,1.744,1.7505,1.7525,1.7541,1.7553,1.7533,1.7617,1.7625,1.7632,1.7657,1.7667,1.7545,1.7545,1.7545,1.7545,0,1.7211,1.7254,1.7291,1.7332,1.7358,1.7406,1.7414,1.744,1.7438,1.7447,1.7502,1.7524,1.7563,1.7578,1.7577,1.7643,1.7632,1.7616,1.7585,1.7645,1.7669,1.7679,1.7549,1.7548,1.7547,1.7547,0,0,1.7309,1.735,1.7363,1.738,1.7413,1.7446,1.7491,1.7529,1.755,1.7579,1.7615,1.7669,1.7653,1.7675,1.7675,1.7704,1.7763,1.7684,1.7684,1.7696,1.7835,1.7846,1.7857,1.7756,1.7758,1.7759,1.7831,0,1.7387,1.7468,1.7471,1.7545,1.7583,1.757,1.7609,1.7632,1.7642,1.7674,1.7683,1.7721,1.7698,1.7711,1.7739,1.775,1.7791,1.7745,1.7788,1.7789,1.778,1.787,1.7882,1.795,1.7841,1.7843,1.7844,0,1.749,1.7521,1.7598,1.7623,1.7639,1.7674,1.7708,1.774,1.7764,1.7769,1.7791,1.7786,1.783,1.7797,1.7856,1.7825,1.7842,1.785,1.7852,1.7856,1.7819,1.7874,1.7971,1.7981,1.7859,1.7858,1.7857,0,1.7551,1.7612,1.7666,1.7681,1.7712,1.7736,1.775,1.7774,1.7795,1.7824,1.7837,1.787,1.7888,1.7913,1.7916,1.7892,1.7974,1.7942,1.7976,1.7976,1.7994,1.7992,1.8094,1.8007,1.8007,1.8007,1.8007,0,1.7637,1.7684,1.7693,1.7726,1.7777,1.7779,1.7829,1.784,1.786,1.7893,1.7884,1.7915,1.7917,1.7948,1.7951,1.7997,1.8006,1.8009,1.8009,1.8009,1.8008,1.802,1.8015,1.801,1.8009,1.8009,1.8008,0,1.7714,1.7723,1.7779,1.7804,1.7811,1.7847,1.7867,1.7896,1.7904,1.7945,1.7955,1.7966,1.8002,1.8007,1.8049,1.805,1.8106,1.8101,1.8097,1.8096,1.8129,1.8125,1.8241,1.8255,1.816,1.8161,1.8162,0,1.7768,1.7804,1.7831,1.7853,1.7868,1.7903,1.7925,1.7927,1.7949,1.7979,1.8004,1.8039,1.8067,1.8124,1.8134,1.8166,1.8161,1.8199,1.8165,1.8164,1.8159,1.8156,1.8159,1.8205,1.8206,1.8207,1.8208,0,1.7862,1.7864,1.7896,1.7929,1.7954,1.798,1.8004,1.8022,1.8027,1.8052,1.8088,1.811,1.8152,1.8185,1.8216,1.8228,1.8218,1.8218,1.8227,1.8227,1.8223,1.8224,1.8113,1.8215,1.8215,1.8214,1.8214,1.8213,1.7928,1.7958,1.7981,1.8016,1.8034,1.8056,1.8085,1.8095,1.8126,1.816,1.8159,1.8198,1.8219,1.8259,1.8273,1.8302,1.829,1.8303,1.8307,1.831,1.8312,1.8219,1.8308,1.8308,1.8307,1.8307,1.8307,0,1.802,1.8033,1.8066,1.8099,1.8126,1.8115,1.814,1.8163,1.8197,1.8218,1.8245,1.8285,1.8317,1.833,1.836,1.8381,1.8377,1.8389,1.8387,1.8389,1.8323,1.8311,1.8391,1.8391,1.8391,1.8391,1.8391,1.8391,1.8071,1.812,1.8123,1.818,1.8193,1.8232,1.8247,1.8266,1.8282,1.8328,1.8354,1.8362,1.8379,1.841,1.8438,1.844,1.8451,1.8465,1.8465,1.8403,1.8394,1.8386,1.8375,1.8467,1.8467,1.8529,1.8529,1.853]}]]